This is the latest recevied weather packets stored in our database for station/object W5ITZ. If no packets are shown the sender has not sent any weather packets the latest 10 day(s).
| Time | Temp. | Humidity | Pressure | Rain* | Wind** | Luminosity | Snow |
|---|---|---|---|---|---|---|---|
| 1787701817 | 32.78° C | 51% | 1014.7 hPa | 0 mm | - | 91 W/m² | - |
| 1787701513 | 33.33° C | 47% | 1014.5 hPa | 0 mm | - | 103 W/m² | - |
| 1787701208 | 33.33° C | 46% | 1014.8 hPa | 0 mm | - | 116 W/m² | - |
| 1787700903 | 33.33° C | 44% | 1014.5 hPa | 0 mm | - | 129 W/m² | - |
| 1787700599 | 33.89° C | 44% | 1014.5 hPa | 0 mm | - | 143 W/m² | - |
| 1787700295 | 33.89° C | 42% | 1014.8 hPa | 0 mm | - | 158 W/m² | - |
| 1787699991 | 33.89° C | 44% | 1014.5 hPa | 0 mm | - | 172 W/m² | - |
| 1787699686 | 34.44° C | 44% | 1014.7 hPa | 0 mm | - | 192 W/m² | - |
| 1787699382 | 34.44° C | 43% | 1014.7 hPa | 0 mm | - | 210 W/m² | - |
| 1787699077 | 34.44° C | 44% | 1014.7 hPa | 0 mm | - | 226 W/m² | - |
| 1787698772 | 34.44° C | 45% | 1015 hPa | 0 mm | - | 246 W/m² | - |
| 1787698469 | 34.44° C | 45% | 1014.5 hPa | 0 mm | - | 266 W/m² | - |
| 1787698167 | 35° C | 44% | 1014.5 hPa | 0 mm | - | 285 W/m² | - |
| 1787697860 | 35° C | 44% | 1014.6 hPa | 0 mm | - | 306 W/m² | - |
| 1787697554 | 35° C | 44% | 1014.5 hPa | 0 mm | - | 326 W/m² | - |
| 1787697250 | 35.56° C | 43% | 1014.4 hPa | 0 mm | - | 350 W/m² | - |
| 1787696945 | 35° C | 44% | 1014.4 hPa | 0 mm | - | 369 W/m² | - |
| 1787696641 | 35° C | 43% | 1014.1 hPa | 0 mm | - | 388 W/m² | - |
| 1787696336 | 35.56° C | 43% | 1014.5 hPa | 0 mm | - | 408 W/m² | - |
| 1787696031 | 35° C | 44% | 1014.4 hPa | 0 mm | - | 427 W/m² | - |
| 1787695731 | 35.56° C | 44% | 1014.5 hPa | 0 mm | - | 447 W/m² | - |
| 1787695428 | 35° C | 44% | 1014.5 hPa | 0 mm | - | 470 W/m² | - |
| 1787695124 | 35° C | 45% | 1014.6 hPa | 0 mm | - | 490 W/m² | - |
| 1787694820 | 35.56° C | 44% | 1014.6 hPa | 0 mm | - | 510 W/m² | - |
| 1787694517 | 35.56° C | 44% | 1014.4 hPa | 0 mm | - | 526 W/m² | - |
* Rain latest hour (hover to see other rain measurements)
** Current wind speed in m/s (hover to see current wind gust speed)